Location: *
(46.1866°S, 178.5290°W)
Time: 03:20:40
(UTC+00:00)

NOSS 3-1 (C) - Visible Passes

Search period start: 20 September 2021 00:00
Search period end: 30 September 2021 00:00
Orbit: 722 x 1486 km, 63.4° (Epoch: 30 July)

Date Brightness Start Highest point End Pass type
(mag) Time Alt. Az. Time Alt. Az. Time Alt. Az.
20 Sep 5.5 06:57:08 10° SW 07:02:19 20° S 07:06:55 10° SE visible
20 Sep 4.4 08:49:07 10° SSW 08:55:09 36° SSE 08:55:09 36° SSE visible
20 Sep 5.5 10:40:21 10° SW 10:42:33 21° SW 10:42:33 21° SW visible
21 Sep 5.6 06:10:55 10° SW 06:16:09 19° S 06:20:50 10° SE visible
21 Sep 4.7 08:03:38 10° SSW 08:09:33 28° SSE 08:11:14 25° SE visible
21 Sep 4.7 09:54:48 10° SW 09:58:37 36° SW 09:58:37 36° SW visible
22 Sep 5.1 07:18:02 10° SSW 07:23:34 23° SSE 07:27:19 14° ESE visible
22 Sep 4.0 09:09:20 10° SW 09:14:43 51° S 09:14:43 51° S visible
22 Sep 5.9 11:01:12 10° WSW 11:02:06 13° WSW 11:02:06 13° WSW visible
23 Sep 5.4 06:32:15 10° SW 06:37:30 20° S 06:42:09 10° ESE visible
23 Sep 3.9 08:23:56 10° SSW 08:30:21 43° SE 08:30:50 42° SE visible
23 Sep 5.2 10:15:17 10° SW 10:18:14 25° WSW 10:18:14 25° WSW visible
24 Sep 4.5 07:38:29 10° SSW 07:44:36 32° SSE 07:46:58 24° ESE visible
24 Sep 4.2 09:29:39 10° SW 09:34:22 47° WSW 09:34:22 47° WSW visible
25 Sep 4.9 06:52:57 10° SSW 06:58:42 26° SSE 07:03:07 12° ESE visible
25 Sep 3.3 08:44:09 10° SW 08:50:32 76° SSE 08:50:32 76° SSE visible
25 Sep 5.7 10:36:30 10° WSW 10:37:55 14° WSW 10:37:55 14° WSW visible
26 Sep 3.6 07:58:43 10° SW 08:05:16 52° SE 08:06:43 42° E visible
26 Sep 4.9 09:50:18 10° SW 09:54:07 28° W 09:54:07 28° W visible
27 Sep 4.2 07:13:18 10° SSW 07:19:36 37° SE 07:22:56 21° E visible
27 Sep 3.8 09:04:32 10° SW 09:10:20 52° WNW 09:10:20 52° WNW visible
28 Sep 4.7 06:27:49 10° SSW 06:33:46 29° SSE 06:38:51 10° E visible
28 Sep 3.2 08:18:59 10° SW 08:25:31 85° NW 08:26:35 61° NNE visible
28 Sep 5.7 10:12:10 10° WSW 10:14:00 13° W 10:14:00 13° W visible
29 Sep 3.4 07:33:31 10° SW 07:40:07 64° SE 07:42:53 31° ENE visible
29 Sep 4.9 09:25:27 10° WSW 09:30:14 24° WNW 09:30:17 24° WNW visible
